Shearwater RCS,

6:16 AM ADT on June 28, 2017 (GMT -0300)
Shearwater RCS

Weather History for CAAW - December, 2013

Change the Weather History Date:

Sunday, December 22, 2013

  Actual Average Record
Temperature  
Mean Temperature 36 °F -  
Max Temperature 41 °F 29 °F - ()
Min Temperature 30 °F 15 °F - ()
Degree Days  
Heating Degree Days 30    
Moisture  
Dew Point 33 °F    
Average Humidity 96    
Maximum Humidity 99    
Minimum Humidity 92    
Precipitation  
Precipitation 0.28 in - - ()
Sea Level Pressure  
Sea Level Pressure 30.03 in    
Wind  
Wind Speed 6 mph ()    
Max Wind Speed 15 mph    
Max Gust Speed 22 mph    
T = Trace of Precipitation, MM = Missing Value Source: Averaged Metar Reports

Daily Weather History Graph

Daily Weather History Graph

Search for Another Location

Airport or City:

Trip Planner

Search our weather history database for the weather conditions in past years. The results will help you decide how hot, cold, wet, or windy it might be!

Date:

Astronomy

Dec. 22, 2013 Rise Set
Actual Time 7:48 AM AST 4:37 PM AST
Civil Twilight 7:14 AM AST 5:10 PM AST
Nautical Twilight 6:37 AM AST 5:47 PM AST
Astronomical Twilight 6:02 AM AST 6:23 PM AST
Moon 9:57 PM AST (12/22) 10:31 AM AST (12/22)
Length of Visible Light 9h 55m
Length of Day
8h 48m
Waning Gibbous, 77% of the Moon is Illuminated
Dec 22
Waning Gibbous
Dec 25
Last Quarter
Jan 1
New
Jan 7
First Quarter
Jan 16
Full

Hourly Weather History & Observations

Time (AST) Temp. Windchill Dew Point Humidity Pressure Visibility Wind Dir Wind Speed Gust Speed Precip Events Conditions
12:00 AM 41.7 °F - 41.5 °F 99% 29.94 in - SSW 2.3 mph - 0.10 in   Unknown
1:00 AM 40.8 °F - 40.6 °F 99% 29.95 in - SW 1.2 mph - 0.02 in   Unknown
2:00 AM 41 °F - 40 °F 97% 29.96 in - NW 2.3 mph - -  
2:00 AM 40.8 °F - 40.5 °F 99% 29.96 in - NW 2.3 mph - 0.04 in   Unknown
3:00 AM 40.8 °F 36.2 °F 40.6 °F 99% 29.98 in - North 6.9 mph - 0.03 in   Unknown
4:00 AM 37.8 °F 29.8 °F 37.4 °F 99% 30.01 in - North 12.7 mph - 0.02 in   Unknown
5:00 AM 34.2 °F 24.8 °F 33.1 °F 96% 30.01 in - North 13.8 mph - 0.02 in   Unknown
6:00 AM 33.1 °F 24.4 °F 31.8 °F 95% 30.02 in - NNE 11.5 mph - 0.04 in   Unknown
7:00 AM 32.7 °F 26.4 °F 31.5 °F 95% 30.04 in - NE 6.9 mph - 0.07 in   Unknown
8:00 AM 33 °F - 31 °F 92% 30.06 in - ENE 5.8 mph - -  
8:00 AM 32.5 °F 27.1 °F 31.5 °F 96% 30.06 in - ENE 5.8 mph - 0.07 in   Unknown
9:00 AM 32.5 °F 28.1 °F 31.6 °F 96% 30.04 in - ENE 4.6 mph - 0.08 in   Unknown
10:00 AM 32.7 °F 28.3 °F 31.8 °F 96% 30.06 in - ENE 4.6 mph - 0.05 in   Unknown
11:00 AM 32.7 °F 25.7 °F 31.8 °F 96% 30.03 in - East 8.1 mph - 0.04 in   Unknown
12:00 PM 33.3 °F 27.1 °F 32.4 °F 96% 29.99 in - ESE 6.9 mph 19.6 mph N/A   Unknown
1:00 PM 33.4 °F 27.3 °F 32.5 °F 96% 29.98 in - NE 6.9 mph - 0.01 in   Unknown
2:00 PM 33 °F - 32 °F 95% 29.98 in - NE 8.1 mph - -  
2:00 PM 32.9 °F 24.7 °F 32.2 °F 97% 29.98 in - NE 10.4 mph - 0.02 in   Unknown
3:00 PM 33.3 °F 23.2 °F 32.4 °F 96% 30.00 in - NE 15.0 mph 21.9 mph 0.03 in   Unknown
4:00 PM 33.3 °F 25.1 °F 32.2 °F 96% 30.01 in - NE 10.4 mph - 0.01 in   Unknown
5:00 PM 33.1 °F 26.1 °F 32.2 °F 96% 30.04 in - ENE 8.1 mph - 0.01 in   Unknown
6:00 PM 32.5 °F 22.7 °F 31.1 °F 94% 30.06 in - ENE 13.8 mph - N/A   Unknown
7:00 PM 31.8 °F 25.4 °F 30.9 °F 96% 30.08 in - ENE 6.9 mph - N/A   Unknown
8:00 PM 31 °F - 30 °F 96% 30.12 in - ENE 6.9 mph - -  
8:00 PM 31.3 °F 24.7 °F 30.4 °F 96% 30.12 in - NE 6.9 mph - 0.01 in   Unknown
9:00 PM 30.9 °F 23.5 °F 30.0 °F 96% 30.10 in - ENE 8.1 mph - 0.01 in   Unknown
10:00 PM 30.7 °F 24.1 °F 29.5 °F 95% 30.11 in - ENE 6.9 mph - N/A   Unknown
11:00 PM 30.7 °F 23.3 °F 29.8 °F 96% 30.12 in - ENE 8.1 mph - 0.01 in   Unknown